Location: Unspecified
(0.0000°N, 0.0000°E)
Time: 19:17:20
(UTC+01:00)

Cosmos 1538 Rocket - Visible Passes

Search period start: 22 January 2018 00:00
Search period end: 01 February 2018 00:00
Orbit: 751 x 793 km, 74.0° (Epoch: 22 January)

Date Brightness Start Highest point End Pass type
(mag) Time Alt. Az. Time Alt. Az. Time Alt. Az.
23 Jan 6.7 22:03:50 10° SSW 22:04:26 13° SSW 22:04:26 13° SSW visible
24 Jan 5.8 21:28:04 10° S 21:29:56 22° S 21:29:56 22° S visible
25 Jan 5.4 20:52:50 10° SSE 20:55:30 25° SE 20:55:30 25° SE visible
26 Jan 5.6 20:18:27 10° SE 20:21:10 17° ESE 20:21:10 17° ESE visible
26 Jan 6.2 21:59:11 10° SW 22:01:35 22° WSW 22:01:35 22° WSW visible
27 Jan 4.7 21:22:45 10° SSW 21:27:21 53° WSW 21:27:21 53° WSW visible
28 Jan 3.9 20:46:54 10° S 20:52:12 74° ESE 20:53:13 57° NE visible
29 Jan 4.6 20:11:35 10° SSE 20:16:28 37° ESE 20:19:11 22° NE visible
29 Jan 6.7 21:56:01 10° WSW 21:58:20 13° WNW 21:59:37 12° WNW visible
30 Jan 5.4 19:37:01 10° SSE 19:40:43 19° ESE 19:44:24 10° ENE visible
30 Jan 6.0 21:18:14 10° SW 21:22:33 26° WNW 21:25:43 15° NNW visible
31 Jan 4.8 20:41:40 10° SSW 20:46:48 50° WNW 20:51:55 10° N visible
